Actual water levels and discharges of Vltava river

Vraňany

Date and time (UTC) H (cm) Q (m³/s)
20. 7. 2024 05:50 37 75.5
20. 7. 2024 05:00 37 76
20. 7. 2024 04:00 37 76
20. 7. 2024 03:00 35 74
20. 7. 2024 02:00 35 74
20. 7. 2024 01:00 37 76
20. 7. 2024 00:00 38 77
19. 7. 2024 23:00 38 77
19. 7. 2024 22:00 39 78
19. 7. 2024 21:00 44 83
19. 7. 2024 20:00 41 80
19. 7. 2024 19:00 38 77
19. 7. 2024 18:00 33 72
19. 7. 2024 17:00 40 79

H - water level, Q - discharge

Praha-Chuchle

Date and time (UTC) H (cm) Q (m³/s)
20. 7. 2024 05:50 58 66.4
20. 7. 2024 05:00 58 66
20. 7. 2024 04:00 58 66
20. 7. 2024 03:00 58 66
20. 7. 2024 02:00 58 66
20. 7. 2024 01:00 58 66
20. 7. 2024 00:00 58 66
19. 7. 2024 23:00 58 66
19. 7. 2024 22:00 58 66
19. 7. 2024 21:00 57 64
19. 7. 2024 20:00 58 66
19. 7. 2024 19:00 58 66
19. 7. 2024 18:00 57 64
19. 7. 2024 17:00 59 69

H - water level, Q - discharge
more information

VD Vrané nad Vltavou

Date and time (UTC) H (m n. m.) Q (m³/s)
20. 7. 2024 06:00 200.05 59.8
20. 7. 2024 05:00 200.02 60
20. 7. 2024 04:00 199.95 60
20. 7. 2024 03:00 199.82 60
20. 7. 2024 02:00 199.64 60
20. 7. 2024 01:00 199.49 60
20. 7. 2024 00:00 199.50 60
19. 7. 2024 23:00 199.51 60
19. 7. 2024 22:00 199.50 60
19. 7. 2024 21:00 199.33 60
19. 7. 2024 20:00 199.28 60
19. 7. 2024 19:00 199.32 60
19. 7. 2024 18:00 199.38 60

H - water level, Q - outflow

VD Štěchovice

Date and time (UTC) H (m n. m.) Q (m³/s)
20. 7. 2024 06:00 218.45 79.9
20. 7. 2024 05:00 218.20 -
20. 7. 2024 04:00 217.96 99
20. 7. 2024 03:00 217.80 -
20. 7. 2024 02:00 217.66 -
20. 7. 2024 01:00 217.69 150
20. 7. 2024 00:00 217.73 -
19. 7. 2024 23:00 217.78 -
19. 7. 2024 22:00 217.83 -
19. 7. 2024 21:00 217.96 -
19. 7. 2024 20:00 217.83 60
19. 7. 2024 19:00 218.06 15
19. 7. 2024 18:00 218.07 -

H - water level, Q - outflow

VD Slapy

Date and time (UTC) H (m n. m.) Q (m³/s)
20. 7. 2024 06:00 269.79 111.7
20. 7. 2024 05:00 269.85 137
20. 7. 2024 04:00 269.84 128
20. 7. 2024 03:00 269.87 174
20. 7. 2024 02:00 269.88 154
20. 7. 2024 01:00 269.91 140
20. 7. 2024 00:00 269.91 46
19. 7. 2024 23:00 269.94 0
19. 7. 2024 22:00 269.93 0
19. 7. 2024 21:00 269.94 163
19. 7. 2024 20:00 269.96 103
19. 7. 2024 19:00 269.99 0
19. 7. 2024 18:00 269.98 0

H - water level, Q - outflow

VD Kamýk

Date and time (UTC) H (m n. m.) Q (m³/s)
20. 7. 2024 06:00 282.48 -
20. 7. 2024 05:00 282.45 -
20. 7. 2024 04:00 282.55 -
20. 7. 2024 03:00 282.75 -
20. 7. 2024 02:00 282.94 -
20. 7. 2024 01:00 283.05 -
20. 7. 2024 00:00 283.21 -
19. 7. 2024 23:00 283.27 -
19. 7. 2024 22:00 283.27 -
19. 7. 2024 21:00 283.17 -
19. 7. 2024 20:00 282.71 -
19. 7. 2024 19:00 282.71 -
19. 7. 2024 18:00 282.72 -

H - water level, Q - outflow

VD Orlík

Date and time (UTC) H (m n. m.) Q (m³/s)
20. 7. 2024 06:00 347.54 0
20. 7. 2024 05:00 347.52 0
20. 7. 2024 04:00 347.52 0
20. 7. 2024 03:00 347.52 0
20. 7. 2024 02:00 347.50 0
20. 7. 2024 01:00 347.51 0
20. 7. 2024 00:00 347.50 0
19. 7. 2024 23:00 347.48 0
19. 7. 2024 22:00 347.50 0
19. 7. 2024 21:00 347.47 218
19. 7. 2024 20:00 347.51 53
19. 7. 2024 19:00 347.51 0
19. 7. 2024 18:00 347.50 0

H - water level, Q - outflow

VD Kořensko

Date and time (UTC) H (m n. m.) Q (m³/s)
20. 7. 2024 06:00 352.51 33.1
20. 7. 2024 05:00 352.52 33
20. 7. 2024 04:00 352.52 33
20. 7. 2024 03:00 352.53 33
20. 7. 2024 02:00 352.53 -
20. 7. 2024 01:00 352.54 33
20. 7. 2024 00:00 352.54 -
19. 7. 2024 23:00 352.54 -
19. 7. 2024 22:00 352.54 32
19. 7. 2024 21:00 352.54 -
19. 7. 2024 20:00 352.54 32
19. 7. 2024 19:00 352.54 32
19. 7. 2024 18:00 352.54 32

H - water level, Q - outflow

VD Hněvkovice I - přehrada

Date and time (UTC) H (m n. m.) Q (m³/s)
- - -

H - water level, Q - outflow

České Budějovice

Date and time (UTC) H (cm) Q (m³/s)
20. 7. 2024 05:40 100 14.1
20. 7. 2024 05:00 99 16
20. 7. 2024 04:00 98 12
20. 7. 2024 03:00 99 14
20. 7. 2024 02:00 99 14
20. 7. 2024 01:00 99 14
20. 7. 2024 00:00 99 14
19. 7. 2024 23:00 99 16
19. 7. 2024 22:00 98 16
19. 7. 2024 21:00 100 14
19. 7. 2024 20:00 107 18
19. 7. 2024 19:00 91 10
19. 7. 2024 18:00 94 12
19. 7. 2024 17:00 95 12

H - water level, Q - discharge
more information

Vyšší Brod

Date and time (UTC) H (cm) Q (m³/s)
20. 7. 2024 05:40 81 9.3
20. 7. 2024 05:00 81 9
20. 7. 2024 04:00 81 9
20. 7. 2024 03:00 82 10
20. 7. 2024 02:00 84 10
20. 7. 2024 01:00 86 11
20. 7. 2024 00:00 86 12
19. 7. 2024 23:00 84 11
19. 7. 2024 22:00 85 11
19. 7. 2024 21:00 86 12
19. 7. 2024 20:00 85 11
19. 7. 2024 19:00 85 11
19. 7. 2024 18:00 85 11
19. 7. 2024 17:00 85 11

H - water level, Q - discharge
Source data
Labe Basin Vltava Basin Povodí Moravy ČHMÚ
Po vodě ekologicky, levně a v pohodě
backgroung on backgroung off